GW3604 Weather Reports


time (UTC)temp
F
wind
direction
speed
knots
gust
knots
rain 1hr
in
rain 24hr
in
rain mn
in
humidity
%
barometer
mb
20260507065003 51 0 0.0 0.0 0.00 0.22 0.00 90 1006.2
20260507064504 51 0 0.0 0.0 0.00 0.22 0.00 90 1005.8
20260507064003 52 0 0.0 0.0 0.00 0.22 0.00 90 1006.2
20260507063504 52 0 0.0 0.0 0.00 0.22 0.00 90 1006.3
20260507063003 52 0 0.0 0.0 0.00 0.22 0.00 90 1006.0
20260507062503 52 0 0.0 0.0 0.00 0.22 0.00 90 1005.9
20260507062003 52 0 0.0 0.0 0.00 0.22 0.00 90 1005.9
20260507061503 52 0 0.0 0.0 0.00 0.22 0.00 90 1006.0
20260507061003 52 0 0.0 0.0 0.00 0.22 0.00 90 1006.0
20260507060503 52 0 0.0 0.0 0.00 0.22 0.00 90 1006.1
20260507060004 52 0 0.0 0.0 0.00 0.22 0.00 90 1006.1
20260507055504 52 0 0.0 0.0 0.00 0.22 0.00 90 1006.1
20260507055003 52 0 0.0 0.0 0.00 0.22 0.00 90 1006.3
20260507054504 52 0 0.0 0.0 0.00 0.22 0.00 90 1006.4
20260507054003 53 0 0.0 0.0 0.00 0.22 0.00 90 1006.6
20260507053504 53 0 0.0 0.0 0.00 0.22 0.00 90 1006.7
20260507053004 53 0 0.0 0.0 0.00 0.22 0.00 90 1006.6
20260507051503 53 0 0.0 0.0 0.00 0.22 0.00 91 1006.4
20260507051003 53 0 0.0 0.0 0.00 0.22 0.00 91 1006.8
20260507050503 53 0 0.0 0.0 0.00 0.22 0.00 91 1006.7
20260507050003 54 0 0.0 0.0 0.00 0.22 0.00 91 1006.4
20260507045504 54 314 0.0 0.9 0.00 0.22 0.00 91 1006.3
20260507045003 54 314 0.0 2.6 0.02 0.22 0.00 91 1006.3
20260507044503 54 318 0.0 3.5 0.02 0.22 0.00 91 1006.3
20260507043503 54 0 0.0 0.0 0.02 0.22 0.00 91 1006.3
20260507043003 55 0 0.0 0.0 0.02 0.22 0.00 91 1006.3
20260507042003 55 323 0.0 1.7 0.02 0.22 0.00 91 1006.3
20260507041503 55 324 0.0 1.7 0.02 0.22 0.00 91 1006.3
20260507041003 56 318 0.0 2.6 0.02 0.22 0.00 91 1006.4
20260507040503 56 318 0.9 6.1 0.02 0.22 0.00 91 1006.4
20260507040005 56 317 0.9 6.1 0.02 0.22 0.00 91 1006.3
20260507035003 57 0 0.0 0.0 0.01 0.20 0.20 92 1006.3
20260507034503 57 0 0.0 0.0 0.01 0.20 0.20 92 1006.0
20260507034003 57 0 0.0 0.0 0.01 0.20 0.20 92 1005.8
20260507033503 57 313 0.0 2.6 0.01 0.20 0.20 92 1005.8
20260507032504 58 311 0.0 1.7 0.01 0.20 0.20 93 1005.8
20260507032003 58 317 0.9 5.2 0.01 0.20 0.20 93 1005.7
20260507031504 58 309 0.9 5.2 0.01 0.20 0.20 94 1005.5
20260507031003 59 303 1.7 5.2 0.01 0.20 0.20 94 1005.3
20260507030503 59 305 0.9 5.2 0.01 0.20 0.20 95 1005.6
20260507030004 59 0 0.0 0.0 0.00 0.19 0.19 95 1005.4
20260507025503 59 0 0.0 0.0 0.00 0.19 0.19 95 1005.3
20260507025004 59 0 0.0 0.0 0.00 0.19 0.19 95 1005.4
20260507024504 59 220 0.0 1.7 0.00 0.19 0.19 95 1005.2
20260507024003 59 220 0.0 1.7 0.00 0.19 0.19 95 1005.2
20260507023504 59 203 0.0 3.5 0.00 0.19 0.19 95 1005.2
20260507023003 59 201 0.0 3.5 0.00 0.19 0.19 94 1005.3
20260507021503 59 0 0.0 0.0 0.00 0.19 0.19 94 1004.9
20260507021003 59 0 0.0 0.0 0.00 0.19 0.19 94 1004.7
20260507020503 59 249 0.0 5.2 0.00 0.19 0.19 94 1004.7
20260507020004 59 244 0.0 5.2 0.00 0.19 0.19 94 1004.9
20260507015014 59 228 0.0 4.3 0.00 0.19 0.19 94 1004.8
20260507014503 59 202 0.0 2.6 0.00 0.19 0.19 94 1004.9
20260507014004 59 182 0.9 5.2 0.00 0.19 0.19 94 1005.1
20260507013507 59 196 0.9 5.2 0.00 0.19 0.19 94 1005.1
20260507013004 59 209 0.9 6.1 0.00 0.19 0.19 94 1004.9
20260507012003 59 182 1.7 5.2 0.00 0.19 0.19 94 1005.1
20260507011504 59 174 0.9 5.2 0.00 0.19 0.19 94 1005.1
20260507010503 59 182 0.9 7.0 0.00 0.19 0.19 94 1005.1
20260507010003 59 215 0.0 0.9 0.00 0.19 0.19 94 1005.2
20260507005503 59 159 0.0 5.2 0.00 0.19 0.19 94 1005.2
20260507005008 59 163 0.0 5.2 0.00 0.19 0.19 94 1005.2
20260507004512 59 166 0.9 4.3 0.00 0.19 0.19 94 1005.2
20260507003503 59 175 0.0 5.2 0.00 0.19 0.19 94 1005.0
20260507003003 59 152 0.0 3.5 0.00 0.19 0.19 94 1004.8
20260507002504 59 176 0.9 4.3 0.00 0.19 0.19 94 1004.8
20260507002003 59 194 0.9 5.2 0.00 0.19 0.19 94 1004.8
20260507001504 59 191 0.9 6.1 0.00 0.19 0.19 94 1004.8
20260507001003 59 174 0.9 6.1 0.01 0.19 0.19 94 1004.9
20260507000003 59 159 0.0 5.2 0.03 0.19 0.19 94 1004.7
20260506235503 59 156 0.0 5.2 0.04 0.19 0.19 94 1004.7
20260506234004 60 159 0.0 5.2 0.06 0.19 0.19 94 1004.7
20260506233004 60 193 0.0 5.2 0.07 0.19 0.19 93 1004.7
20260506232503 60 193 0.0 5.2 0.07 0.19 0.19 93 1004.7
20260506232003 60 0 0.0 0.0 0.08 0.19 0.19 93 1004.7
20260506231003 60 161 0.9 7.8 0.08 0.18 0.18 93 1004.7
20260506230004 60 170 0.9 6.1 0.06 0.16 0.16 93 1004.8
20260506225004 60 172 0.0 1.7 0.07 0.15 0.15 92 1005.1
20260506224503 60 192 0.9 3.5 0.06 0.14 0.14 92 1005.1
20260506224003 60 179 0.9 6.1 0.05 0.13 0.13 92 1005.0
20260506223503 60 171 0.9 6.1 0.04 0.12 0.12 92 1005.0
20260506223004 60 181 0.9 7.8 0.04 0.12 0.12 92 1004.9
20260506222503 60 178 0.9 7.8 0.04 0.12 0.12 92 1005.1
20260506222003 60 166 0.9 5.2 0.03 0.11 0.11 92 1005.1
20260506221504 60 161 0.9 7.8 0.02 0.10 0.10 92 1005.2
20260506221003 60 159 1.7 7.8 0.02 0.10 0.10 91 1005.2
20260506220503 60 160 1.7 7.8 0.03 0.10 0.10 91 1005.2
20260506220003 60 166 0.9 11.3 0.03 0.10 0.10 91 1005.2
20260506215003 60 145 0.9 7.8 0.01 0.08 0.08 91 1005.3
20260506214004 60 168 1.7 10.4 0.02 0.08 0.08 90 1005.2
20260506213503 60 165 1.7 10.4 0.02 0.08 0.08 90 1005.2
20260506213004 61 169 0.9 7.8 0.02 0.08 0.08 90 1005.2
20260506211503 61 163 0.9 12.2 0.03 0.08 0.08 89 1005.5
20260506211003 61 179 0.0 12.2 0.04 0.08 0.08 89 1005.6
20260506210504 61 171 1.7 13.0 0.03 0.07 0.07 89 1005.6
20260506210003 61 166 1.7 13.0 0.03 0.07 0.07 89 1005.7
20260506205503 61 163 0.9 10.4 0.03 0.07 0.07 89 1005.8
20260506205004 62 166 1.7 10.4 0.03 0.07 0.07 88 1005.8
20260506204504 62 174 1.7 9.6 0.02 0.06 0.06 88 1005.8
20260506204003 62 184 0.9 7.8 0.02 0.06 0.06 87 1005.8
20260506203503 62 199 0.9 6.1 0.02 0.06 0.06 87 1005.8
20260506203004 63 178 0.9 7.8 0.02 0.06 0.06 87 1005.8
20260506202503 63 172 0.9 7.8 0.01 0.05 0.05 87 1005.8
20260506201504 63 172 0.9 6.1 0.02 0.05 0.05 85 1005.8
20260506200504 64 154 0.0 2.6 0.02 0.04 0.04 84 1005.8
20260506200004 64 162 0.9 5.2 0.02 0.04 0.04 84 1005.8
20260506195003 64 185 0.9 9.6 0.03 0.04 0.04 83 1005.8
20260506194002 65 169 0.0 1.7 0.04 0.04 0.04 82 1005.8
20260506193503 65 194 0.9 7.8 0.04 0.04 0.04 81 1005.8
20260506193002 65 192 0.9 7.8 0.04 0.04 0.04 80 1005.8
20260506192502 66 175 0.0 2.6 0.03 0.03 0.03 80 1005.8
20260506192003 66 133 0.0 1.7 0.03 0.03 0.03 79 1005.9
20260506191502 66 165 0.0 7.8 0.03 0.03 0.03 77 1005.7
20260506191002 67 168 0.0 7.8 0.02 0.02 0.02 76 1005.8
20260506190502 67 182 0.0 1.7 0.02 0.02 0.02 75 1005.8
20260506190002 68 193 0.0 1.7 0.02 0.02 0.02 74 1005.9
20260506185502 68 0 0.0 0.0 0.02 0.02 0.02 73 1005.9
20260506185002 68 158 0.0 2.6 0.01 0.01 0.01 71 1006.1
20260506184502 69 173 0.0 5.2 0.01 0.01 0.01 68 1006.1
20260506184002 69 211 0.0 5.2 0.00 0.00 0.00 68 1006.1
20260506183503 70 199 0.9 5.2 0.00 0.00 0.00 66 1006.0
20260506182502 70 236 0.9 13.0 0.00 0.00 0.00 63 1006.2
20260506181502 71 203 1.7 13.0 0.00 0.00 0.00 59 1006.3
20260506181002 71 211 1.7 13.0 0.00 0.00 0.00 58 1006.2
20260506180502 72 207 1.7 11.3 0.00 0.00 0.00 56 1006.2
20260506180002 72 216 1.7 11.3 0.00 0.00 0.00 55 1006.2
20260506175502 72 195 2.6 20.0 0.00 0.00 0.00 53 1006.2
20260506174502 73 193 2.6 13.0 0.00 0.00 0.00 51 1006.3
20260506173502 73 187 2.6 13.9 0.00 0.00 0.00 50 1006.0
20260506173003 73 183 3.5 13.9 0.00 0.00 0.00 51 1006.0
20260506172502 73 183 3.5 12.2 0.00 0.00 0.00 51 1006.0
20260506172002 73 182 3.5 10.4 0.00 0.00 0.00 51 1006.1
20260506171502 73 175 2.6 11.3 0.00 0.00 0.00 51 1006.2
20260506171002 73 167 2.6 12.2 0.00 0.00 0.00 51 1006.3
20260506170502 73 184 2.6 17.4 0.00 0.00 0.00 52 1006.3
20260506170003 73 201 0.9 17.4 0.00 0.00 0.00 54 1006.3
20260506165503 72 178 1.7 9.6 0.00 0.00 0.00 56 1006.5
20260506165002 72 174 2.6 11.3 0.00 0.00 0.00 54 1006.5
20260506164503 72 177 2.6 11.3 0.00 0.00 0.00 55 1006.5
20260506164003 72 179 3.5 10.4 0.00 0.00 0.00 54 1006.6
20260506163502 72 174 2.6 9.6 0.00 0.00 0.00 54 1006.8
20260506163002 71 178 2.6 13.9 0.00 0.00 0.00 55 1006.8
20260506162502 71 186 2.6 13.9 0.00 0.00 0.00 55 1006.9
20260506162002 71 182 0.9 13.9 0.00 0.00 0.00 56 1006.9
20260506161502 71 185 1.7 7.8 0.00 0.00 0.00 57 1006.9
20260506161002 71 200 1.7 8.7 0.00 0.00 0.00 57 1007.1
20260506160502 71 194 0.9 8.7 0.00 0.00 0.00 57 1007.2
20260506160002 70 173 1.7 11.3 0.00 0.00 0.00 57 1007.4
20260506155502 70 178 1.7 11.3 0.00 0.00 0.00 58 1007.4
20260506155003 70 176 2.6 10.4 0.00 0.00 0.00 58 1007.6
20260506154002 70 167 0.9 9.6 0.00 0.00 0.00 58 1007.8
20260506153503 70 171 1.7 9.6 0.00 0.00 0.00 58 1007.8
20260506152503 71 212 2.6 14.8 0.00 0.00 0.00 57 1007.9
20260506152002 71 219 2.6 14.8 0.00 0.00 0.00 57 1007.9
20260506151002 71 175 3.5 11.3 0.00 0.00 0.00 57 1008.2
20260506150503 71 174 3.5 11.3 0.00 0.00 0.00 57 1007.9
20260506145502 70 197 1.7 12.2 0.00 0.00 0.00 59 1008.3
20260506145002 70 195 2.6 12.2 0.00 0.00 0.00 59 1008.4
20260506144503 70 219 2.6 8.7 0.00 0.00 0.00 59 1008.2
20260506144002 70 194 2.6 10.4 0.00 0.00 0.00 60 1008.0
20260506143502 70 169 2.6 15.6 0.00 0.00 0.00 59 1008.0
20260506143002 70 165 3.5 16.5 0.00 0.00 0.00 60 1007.9
20260506142503 70 171 3.5 16.5 0.00 0.00 0.00 60 1008.0
20260506142003 70 174 3.5 16.5 0.00 0.00 0.00 61 1008.0
20260506141502 70 177 2.6 13.9 0.00 0.00 0.00 61 1007.9
20260506140503 69 169 1.7 8.7 0.00 0.00 0.00 64 1007.8
20260506140002 68 183 2.6 10.4 0.00 0.00 0.00 66 1007.9
20260506135502 68 188 2.6 10.4 0.00 0.00 0.00 65 1007.9
20260506135003 67 195 0.9 7.0 0.00 0.00 0.00 66 1007.9
20260506134002 66 174 1.7 8.7 0.00 0.00 0.00 68 1008.2
20260506133502 66 160 2.6 10.4 0.00 0.00 0.00 69 1008.3
20260506133002 66 171 2.6 10.4 0.00 0.00 0.00 69 1008.3
20260506132503 66 184 1.7 8.7 0.00 0.00 0.00 69 1008.4
20260506132002 65 182 0.9 6.1 0.00 0.00 0.00 70 1008.5
20260506131502 65 189 0.9 9.6 0.00 0.00 0.00 70 1008.4
20260506131003 65 166 2.6 9.6 0.00 0.00 0.00 70 1008.5
20260506130003 65 182 0.9 9.6 0.00 0.00 0.00 71 1008.4
20260506125503 65 179 2.6 13.0 0.00 0.00 0.00 71 1008.5
20260506125002 65 179 2.6 13.0 0.00 0.00 0.00 71 1008.6
20260506124503 64 177 2.6 11.3 0.00 0.00 0.00 71 1008.5
20260506124003 64 168 1.7 9.6 0.00 0.00 0.00 71 1008.4
20260506123502 64 181 1.7 8.7 0.00 0.00 0.00 72 1008.4
20260506123002 64 184 1.7 10.4 0.00 0.00 0.00 72 1008.4
20260506122002 64 196 0.9 11.3 0.00 0.00 0.00 72 1008.5
20260506121502 64 175 0.9 11.3 0.00 0.00 0.00 73 1008.8
20260506121002 63 170 0.9 9.6 0.00 0.00 0.00 73 1008.6
20260506120502 63 177 0.0 7.8 0.00 0.00 0.00 74 1008.7
20260506120002 63 171 0.9 4.3 0.00 0.00 0.00 74 1008.5
20260506115002 62 206 0.9 7.8 0.00 0.00 0.00 74 1008.9
20260506114503 62 192 0.9 7.8 0.00 0.00 0.00 74 1008.9
20260506114002 62 193 0.9 5.2 0.00 0.00 0.00 75 1008.9
20260506113502 62 189 0.9 5.2 0.00 0.00 0.00 74 1008.9
20260506113002 62 194 0.0 2.6 0.00 0.00 0.00 75 1008.9
20260506112502 62 177 0.0 10.4 0.00 0.00 0.00 75 1009.0
20260506112002 62 189 0.9 10.4 0.00 0.00 0.00 75 1009.0
20260506111502 62 196 0.9 7.8 0.00 0.00 0.00 76 1009.0
20260506111002 61 178 0.9 7.8 0.00 0.00 0.00 76 1008.9
20260506110502 61 146 0.0 5.2 0.00 0.00 0.00 77 1008.9
20260506105502 61 175 0.0 4.3 0.00 0.00 0.00 77 1009.0
20260506104503 60 184 0.0 4.3 0.00 0.00 0.00 77 1009.0
20260506104002 60 184 0.0 4.3 0.00 0.00 0.00 77 1009.0
20260506103502 60 162 0.0 2.6 0.00 0.00 0.00 77 1008.9
20260506103002 60 174 0.0 2.6 0.00 0.00 0.00 76 1008.9
20260506102502 60 177 0.0 4.3 0.00 0.00 0.00 76 1008.9
20260506101503 60 220 0.0 5.2 0.00 0.00 0.00 76 1008.9
20260506101002 60 206 0.0 3.5 0.00 0.00 0.00 76 1008.9
20260506100503 60 224 0.0 4.3 0.00 0.00 0.00 75 1008.9
20260506100002 60 202 0.0 4.3 0.00 0.00 0.00 75 1008.9
20260506095003 61 170 0.0 1.7 0.00 0.00 0.00 75 1008.9
20260506094502 61 168 0.0 2.6 0.00 0.00 0.00 75 1008.8
20260506094003 61 169 0.0 5.2 0.00 0.00 0.00 75 1008.9
20260506093503 61 169 0.9 7.0 0.00 0.00 0.00 74 1008.6
20260506092502 61 161 0.0 4.3 0.00 0.00 0.00 74 1008.9
20260506092003 61 162 0.0 2.6 0.00 0.00 0.00 74 1008.9
20260506091502 61 137 0.0 2.6 0.00 0.00 0.00 74 1008.9
20260506090502 61 175 0.0 6.1 0.00 0.00 0.00 73 1008.9
20260506090002 62 178 0.0 6.1 0.00 0.00 0.00 72 1008.9
20260506085502 62 194 0.0 4.3 0.00 0.00 0.00 72 1008.8
20260506085002 62 179 0.0 3.5 0.00 0.00 0.00 72 1008.9
20260506084003 62 184 0.0 5.2 0.00 0.00 0.00 71 1008.9
20260506083502 62 181 0.9 5.2 0.00 0.00 0.00 71 1008.9
20260506083002 62 177 0.0 5.2 0.00 0.00 0.00 71 1008.9
20260506082502 62 170 0.0 5.2 0.00 0.00 0.00 71 1008.9
20260506082003 62 171 0.0 5.2 0.00 0.00 0.00 70 1008.8
20260506081502 62 206 0.0 5.2 0.00 0.00 0.00 70 1008.8
20260506080503 62 173 0.0 4.3 0.00 0.00 0.00 69 1008.8
20260506073502 63 192 0.9 8.7 0.00 0.00 0.00 68 1008.6
20260506073003 63 189 0.9 8.7 0.00 0.00 0.00 67 1008.6
20260506072502 63 171 0.0 4.3 0.00 0.00 0.00 67 1008.5
20260506072003 63 179 1.7 10.4 0.00 0.00 0.00 67 1008.4
20260506071003 63 153 0.0 7.8 0.00 0.00 0.00 66 1008.4